Location: Poughquag
(41.6090°N, 73.6820°W)
Time: 12:51:59
(UTC-04:00)

Tiros 1 despin weight - Pass Details

Date: 30 May 2020
Orbit: 593 x 642 km, 48.2° (Epoch: 07 July)

Event Time Altitude Azimuth Distance (km) Brightness Sun altitude
Rises 14:10:25 0° 284° (WNW) 2,900 ? 64.4°
Reaches altitude 10° 14:12:55 10° 293° (WNW) 1,985 ? 64.0°
Maximum altitude 14:17:07 35° 360° (N) 996 ? 63.5°
Drops below altitude 10° 14:21:15 10° 67° (ENE) 1,956 ? 62.9°
Sets 14:23:41 0° 76° (ENE) 2,851 ? 62.5°
